This demonstration page uses our WeatherBlox Daily Observations layout. Learn more.

Left ArrowRight Arrow

Hourly Observations for January 13, 2017

Temp ( °F °C ) Dew Point ( °F °C ) Humidity (%) Winds ( mph kmh ) Pressure ( in mb ) Visibility ( mi km ) Precip ( " mm )
12:53 am 00:53 Partly Cloudy 19 -7.2 9 -12.8 65 65 ENE 12 19 30.58 1036 10 16 0.00 0.00
1:53 am 01:53 Mostly Clear 18 -7.8 10 -12.2 71 71 ENE 12 19 30.59 1036 10 16 0.00 0.00
2:53 am 02:53 Clear 17 -8.3 9 -12.8 70 70 ENE 9 15 30.63 1037 10 16 0.00 0.00
3:53 am 03:53 Clear 16 -8.9 7 -13.9 67 67 ENE 8 13 30.64 1038 10 16 0.00 0.00
4:53 am 04:53 Clear 16 -8.9 7 -13.9 67 67 ENE 7 11 30.65 1038 10 16 0.00 0.00
5:53 am 05:53 Clear 14 -10 7 -13.9 73 73 ENE 9 15 30.64 1038 10 16 0.00 0.00
6:53 am 06:53 Mostly Cloudy 14 -10 7 -13.9 73 73 ENE 10 17 30.66 1038 10 16 0.00 0.00
7:53 am 07:53 Cloudy 13 -10.6 7 -13.9 77 77 ENE 10 17 30.66 1038 10 16 0.00 0.00
8:53 am 08:53 Mostly Cloudy 13 -10.6 7 -13.9 77 77 ENE 13 20 30.68 1039 10 16 0.00 0.00
9:53 am 09:53 Cloudy 15 -9.4 7 -13.9 70 70 E 10 17 30.69 1039 10 16 0.00 0.00
10:53 am 10:53 Cloudy 17 -8.3 8 -13.3 68 68 E 7 11 30.70 1040 10 16 0.00 0.00
11:53 am 11:53 Cloudy 20 -6.7 8 -13.3 60 60 E 6 9 30.67 1039 10 16 0.00 0.00
12:53 pm 12:53 Cloudy 22 -5.6 7 -13.9 52 52 E 6 9 30.62 1037 10 16 0.00 0.00
1:53 pm 13:53 Cloudy 23 -5 6 -14.4 48 48 ENE 8 13 30.60 1036 10 16 0.00 0.00
2:53 pm 14:53 Cloudy 24 -4.4 6 -14.4 46 46 E 6 9 30.60 1036 10 16 0.00 0.00
3:53 pm 15:53 Sunny 25 -3.9 6 -14.4 44 44 E 7 11 30.59 1036 10 16 0.00 0.00
4:53 pm 16:53 Sunny 24 -4.4 6 -14.4 46 46 E 6 9 30.59 1036 10 16 0.00 0.00
5:53 pm 17:53 Clear 21 -6.1 7 -13.9 54 54 ENE 5 7 30.60 1036 10 16 0.00 0.00
6:53 pm 18:53 Clear 18 -7.8 8 -13.3 65 65 E 3 6 30.60 1036 9 14 0.00 0.00
7:53 pm 19:53 Clear 17 -8.3 7 -13.9 64 64 Calm 30.62 1037 10 16 0.00 0.00
8:53 pm 20:53 Clear 16 -8.9 9 -12.8 74 74 Calm 30.62 1037 10 16 0.00 0.00
9:53 pm 21:53 Mostly Clear 18 -7.8 10 -12.2 71 71 Calm 30.62 1037 10 16 0.00 0.00
10:53 pm 22:53 Clear 19 -7.2 9 -12.8 65 65 SSE 5 7 30.62 1037 10 16 0.00 0.00
11:53 pm 23:53 Mostly Clear 18 -7.8 8 -13.3 65 65 Calm 30.61 1037 10 16 0.00 0.00

Powered by AerisWeather